Location: ????
(48.5666°N, 34.4611°E)
Time: 08:34:30
(UTC+00:00)

Daily predictions for brighter satellites

Satellite Brightness Start Highest point End
(mag) Time Altitude Azimuth Time Altitude Azimuth Time Altitude Azimuth
Ariane Rocket 3.0 16:48:28 10° SSE 16:53:30 75° ENE 16:58:35 10° NNW
STARLINK-1208 3.1 16:51:48 10° WNW 16:54:56 63° NNE 16:58:03 10° ESE
STARLINK-1229 3.1 16:52:17 10° WNW 16:55:24 63° NNE 16:58:30 10° ESE
STARLINK-1143 4.2 16:51:35 10° WNW 16:55:38 50° N 16:59:41 10° E
Abrixas rocket 2.0 16:52:47 10° W 16:55:43 72° SSW 16:58:41 10° ESE
STARLINK-1271 3.1 16:52:44 10° WNW 16:55:51 64° NNE 16:58:58 10° ESE
STARLINK-1270 3.1 16:53:12 10° WNW 16:56:19 64° NNE 16:59:24 10° ESE
Meteor 1-16 Rocket 4.2 16:51:20 10° S 16:56:42 66° E 17:02:17 10° NNE
STARLINK-1154 3.1 16:53:39 10° WNW 16:56:46 64° NNE 16:59:52 10° ESE
STARLINK-1197 3.1 16:54:33 10° WNW 16:57:40 65° NNE 17:00:46 10° ESE
STARLINK-1189 3.1 16:54:59 10° WNW 16:58:06 65° NNE 17:01:12 10° ESE
CZ-2C R/B 2.9 16:53:28 10° SSE 16:58:14 64° ENE 17:02:57 10° N
STARLINK-1198 3.0 16:55:27 10° WNW 16:58:34 66° NNE 17:01:41 10° ESE
APEX 4.3 16:52:20 10° NNW 16:58:57 79° ENE 17:04:17 10° SSE
STARLINK-1188 3.0 16:55:53 10° WNW 16:59:00 66° NNE 17:02:06 10° ESE
Cosmos 614 Rocket 4.1 16:54:04 10° S 16:59:09 53° ESE 17:04:13 10° NNE
STARLINK-1235 2.9 16:56:32 10° WNW 16:59:42 79° NNE 17:02:51 10° ESE
STARLINK-1187 3.0 16:56:57 10° WNW 17:00:07 73° NNE 17:03:16 10° ESE
STARLINK-1241 4.2 16:56:36 10° WNW 17:00:40 52° NNE 17:04:44 10° E
STARLINK-1199 3.0 16:57:50 10° WNW 17:00:59 68° NNE 17:04:06 10° ESE
STARLINK-1191 3.0 16:58:16 10° WNW 17:01:25 69° NNE 17:04:33 10° ESE
STARLINK-1210 3.0 16:58:44 10° WNW 17:01:53 69° NNE 17:05:01 10° ESE
STARLINK-1221 3.0 16:59:11 10° WNW 17:02:20 69° NNE 17:05:28 10° ESE
STARLINK-1219 3.0 16:59:39 10° WNW 17:02:47 70° NNE 17:05:55 10° ESE
STARLINK-1222 3.0 17:00:05 10° WNW 17:03:14 70° NNE 17:06:21 10° ESE
Aureole 1 Rocket 4.2 16:56:21 10° S 17:03:30 56° ESE 17:09:06 10° NNE
STARLINK-1211 3.0 17:00:33 10° WNW 17:03:42 71° NNE 17:06:49 10° ESE
STARLINK-1214 3.0 17:01:00 10° WNW 17:04:08 71° NNE 17:07:14 10° ESE
STARLINK-1245 2.9 17:01:28 10° WNW 17:04:36 71° NNE 17:07:39 10° ESE
Cosmos 1190 Rocket 4.4 16:59:49 10° S 17:04:48 43° ESE 17:09:47 10° NE
STARLINK-1238 3.0 17:01:52 10° WNW 17:05:01 72° NNE 17:08:06 10° ESE
IRIDIUM 104 4.4 16:59:47 10° N 17:05:03 86° W 17:10:16 10° S
ERBS 3.6 17:02:01 10° NW 17:05:05 31° NNE 17:08:08 10° E
STARLINK-1239 4.1 17:01:34 10° WNW 17:05:39 53° NNE 17:09:44 10° E
ATLAS CENTAUR R/B 3.7 17:04:31 10° N 17:05:48 11° NNE 17:07:05 10° NE
STARLINK-1205 2.9 17:02:49 10° WNW 17:05:57 73° NNE 17:08:57 11° ESE
STARLINK-1204 2.9 17:03:16 10° WNW 17:06:24 73° NNE 17:09:23 11° ESE
Cosmos 2369 Rocket 4.0 17:03:23 10° NW 17:08:25 33° WSW 17:13:24 10° SSW
Resurs 1-3 4.4 17:04:57 10° SE 17:08:52 33° ENE 17:12:50 10° N
SJ-6B 3.0 17:06:03 10° SSE 17:10:07 62° ENE 17:14:13 10° N
STARLINK-1240 4.1 17:06:34 10° WNW 17:10:39 55° NNE 17:14:43 10° E
STARLINK-29 3.5 17:08:01 10° SW 17:11:01 38° SE 17:14:02 10° ENE
MONITOR-E 3.6 17:08:54 10° SSE 17:11:31 76° ENE 17:14:09 10° N
Cosmos 1300 4.0 17:09:36 10° SE 17:12:30 21° E 17:15:24 10° NE
STARLINK-1216 4.0 17:11:32 10° WNW 17:15:38 57° NNE 17:19:29 11° E
CZ-2C R/B 4.2 17:11:53 10° NNE 17:16:17 38° E 17:20:35 10° SSE
STARLINK-60 2.9 17:15:06 10° WSW 17:18:22 83° SSE 17:21:40 10° ENE
STARLINK-1237 4.0 17:16:30 10° WNW 17:20:37 59° NNE 17:24:15 13° E
Cosmos 2341 Rocket 4.4 17:15:22 10° N 17:21:32 47° ENE 17:27:40 10° SSE
ADEOS Rocket 4.4 17:15:35 10° N 17:21:33 43° WNW 17:26:58 10° SW
Meteor 2-17 Rocket 4.4 17:16:11 10° N 17:22:23 79° E 17:28:33 10° SSE
Cosmos 2058 Rocket 3.3 17:18:07 10° S 17:22:29 52° E 17:26:52 10° NNE
Cosmos 2184 Rocket 4.4 17:17:13 10° NNW 17:23:28 70° W 17:29:37 10° S
CZ-4C R/B 4.1 17:18:27 10° NW 17:24:00 28° NNE 17:30:20 10° ENE
SL-08 RB Rocket 3.7 17:20:07 10° SSE 17:24:41 75° ENE 17:29:19 10° N
Cosmos 1726 Rocket 3.5 17:20:53 10° S 17:25:18 84° E 17:29:48 10° N
STARLINK-1202 3.9 17:21:30 10° WNW 17:25:38 61° NNE 17:29:03 14° E
Cosmos 1461 3.4 17:22:19 10° NW 17:26:51 70° SW 17:31:29 10° SSE
Cosmos 921 Rocket 2.9 17:24:33 10° NNW 17:28:45 71° ENE 17:32:53 10° SSE
Cosmos 407 Rocket 3.4 17:25:16 10° SSW 17:30:24 81° ESE 17:35:33 10° NNE
Cosmos 1703 3.9 17:26:34 10° NNW 17:30:29 59° W 17:34:23 10° S
SL-4 R/B 1.7 17:28:24 10° WSW 17:31:48 70° NNW 17:35:15 10° ENE
STARLINK-1228 3.2 17:29:08 10° WNW 17:32:01 51° SSW 17:33:54 19° SE
Cosmos 1726 3.8 17:29:12 10° SW 17:32:42 37° WNW 17:36:13 10° N
Cosmos 676 Rocket 4.3 17:28:57 10° S 17:33:58 46° ESE 17:38:59 10° NNE
STARLINK-1246 3.8 17:31:27 10° WNW 17:35:35 66° NNE 17:38:37 18° E
Cosmos 1340 Rocket 2.7 17:31:41 10° S 17:35:43 73° E 17:39:44 10° NNE
Cosmos 1908 3.5 17:31:53 10° SSW 17:35:44 72° W 17:39:38 10° N
Cosmos 1943 4.3 17:30:27 10° SW 17:35:55 49° NW 17:41:28 10° NNE
RESURS DK-1 4.2 17:33:15 10° N 17:36:13 18° NE 17:38:27 13° E
Cosmos 2228 3.5 17:32:13 10° SSW 17:36:30 64° WNW 17:40:51 10° N
MetOp-A 4.1 17:33:03 10° SSE 17:38:24 76° ENE 17:43:46 10° NNW
BREEZE-M DEB (TANK) 1.7 17:35:15 10° WSW 17:39:51 88° NNW 17:41:21 20° ENE
STARLINK-1201 3.0 17:36:53 10° WNW 17:40:09 72° SSW 17:42:00 23° SE
FREGAT/IRIS 4.2 17:37:50 10° SSW 17:40:19 31° W 17:42:48 10° NNW
STARLINK-1224 3.7 17:36:28 10° WNW 17:40:37 69° NNE 17:43:25 20° ESE
Nadezhda 1 Rocket 4.1 17:34:36 10° S 17:41:00 86° W 17:47:22 10° N
CZ-2C R/B 2.8 17:37:10 10° NNE 17:42:09 45° E 17:47:08 10° S
STARLINK-1203 3.7 17:38:23 10° WNW 17:42:36 74° NNE 17:45:22 21° ESE
Cosmos 962 Rocket 4.4 17:36:35 10° N 17:42:45 71° E 17:48:49 10° SSE
Cosmos 220 Rocket 4.5 17:38:44 10° NNW 17:42:55 44° ENE 17:45:29 21° SE
MOS 1 Rocket 3.8 17:37:44 10° NNE 17:43:02 51° E 17:48:18 10° S
Cosmos 2058 3.9 17:39:36 10° N 17:43:13 28° ENE 17:44:57 21° ESE
Resurs 01 Rocket 1.9 17:40:10 16° SE 17:43:32 51° ENE 17:47:50 10° N
SL-8 Rocket 4.2 17:39:10 10° N 17:45:21 52° ENE 17:50:32 15° SSE
STARLINK-1225 3.7 17:41:27 10° WNW 17:45:37 72° NNE 17:48:12 22° ESE
Cosmos 2154 Rocket 4.3 17:40:08 10° NNW 17:46:29 73° W 17:52:45 10° S
NOSS 3-4 (A) 4.5 17:40:13 10° NW 17:47:01 55° WSW 17:54:30 10° SSE
NOSS 3-4 (C) 4.4 17:40:19 10° NW 17:47:08 55° WSW 17:54:37 10° SSE
Cosmos 1697 Rocket 4.1 17:43:04 10° N 17:47:41 25° NE 17:51:00 15° E
SPOT 3 Rocket 3.6 17:42:58 10° SSE 17:48:11 86° WSW 17:53:26 10° NNW
ARGOS 3.9 17:43:38 10° S 17:48:54 54° W 17:54:11 10° NNW
SL-24 R/B - RUBIN 2 4.4 17:43:38 10° SW 17:49:20 83° NW 17:55:46 10° NE
Cosmos 1023 Rocket 4.4 17:44:24 10° SSW 17:49:34 88° ESE 17:54:44 10° NNE
Cosmos 1812 Rocket 4.4 17:48:15 21° SE 17:50:10 30° E 17:53:57 10° NNE
STARLINK-1230 3.6 17:46:25 10° WNW 17:50:34 76° NNE 17:52:59 24° ESE
Cosmos 2181 Rocket 4.2 17:45:09 10° SSE 17:51:05 48° E 17:56:58 10° NNE
STARLINK-52 2.8 17:48:09 10° SW 17:51:20 70° SSE 17:53:26 20° ENE
STARLINK-1243 3.6 17:51:23 10° WNW 17:55:33 80° NNE 17:57:45 27° ESE
Cosmos 1954 Rocket 3.9 17:50:24 10° S 17:55:35 67° ESE 18:00:46 10° NNE
FALCON 9 DEB 3.0 17:55:19 10° WSW 17:58:48 80° SSE 18:01:12 19° ENE
Cosmos 2366 rocket 4.2 17:53:26 10° N 17:59:27 52° ENE 18:03:29 21° SE
MINOTAUR IV R/B 4.4 17:55:17 10° SSW 17:59:44 76° ESE 18:04:14 10° NNE
Iridium 2 4.1 17:58:36 27° SE 18:00:11 43° E 18:03:49 10° NNE
STARLINK-1236 3.6 17:56:22 10° WNW 18:00:32 84° NNE 18:02:32 30° ESE
USA 186 4.4 18:01:43 10° SW 18:04:11 19° W 18:06:32 10° NW
Cosmos 1656 4.1 18:01:39 10° NNW 18:07:10 47° NE 18:09:56 27° ESE
Cosmos 1076 Rocket 3.7 18:03:38 10° N 18:07:51 52° ENE 18:09:31 32° SE
Cosmos 1763 Rocket 3.8 18:04:08 10° NNW 18:09:11 49° ENE 18:11:27 29° ESE
STARLINK-1269 3.5 18:06:19 10° WNW 18:10:30 87° SSW 18:12:05 37° ESE
SPOT 1/Viking Rocket 4.3 18:09:29 27° ESE 18:11:33 37° ENE 18:16:21 10° N
USA 234 3.8 18:06:31 10° ENE 18:12:18 33° SE 18:18:03 10° SSW
STARLINK-1200 3.5 18:11:19 10° WNW 18:15:28 83° SSW 18:16:52 40° SE
Cosmos 1980 Rocket 3.7 18:13:19 10° N 18:17:48 24° NE 18:20:16 18° ENE
GRACE-FO 1 4.5 18:16:19 31° S 18:18:01 83° E 18:21:44 10° N
Iridium 4 Rocket 3.2 18:14:12 10° N 18:18:17 50° E 18:19:18 40° SE
GRACE-FO 2 4.5 18:16:43 31° S 18:18:24 84° E 18:22:07 10° N
ATLAS 2AS CENTAUR R/B 4.1 18:12:15 10° NW 18:18:48 34° WSW 18:24:53 10° S
STARLINK-1192 3.5 18:16:18 10° WNW 18:20:26 78° SSW 18:21:39 45° SE
Cosmos 1174 4.1 18:16:24 10° NW 18:20:33 86° NE 18:22:33 36° SE
Cosmos 1455 3.7 18:21:41 22° ENE 18:21:41 22° ENE 18:23:50 10° NNE
H-2A R/B 4.2 18:19:32 10° SW 18:23:34 23° W 18:27:33 10° NW
ATLAS 5 CENTAUR R/B 2.5 18:19:55 10° WSW 18:24:04 50° NW 18:28:47 10° NE
STARLINK-1233 4.2 18:21:31 10° W 18:24:17 29° SW 18:24:29 29° SSW
STARLINK-1212 4.2 18:21:59 10° W 18:24:45 28° SW 18:24:55 28° SSW
STARLINK-1105 4.2 18:22:25 10° W 18:25:12 28° SW 18:25:21 28° SSW
STARLINK-1244 3.6 18:21:21 10° WNW 18:25:30 74° SSW 18:26:31 49° SE
STARLINK-1206 4.3 18:22:54 10° W 18:25:38 28° SW 18:25:46 28° SW
STARLINK-1247 4.3 18:23:22 10° W 18:26:06 28° SW 18:26:12 28° SW
COSMOS 2455 3.7 18:20:48 10° NW 18:26:30 46° WSW 18:30:46 17° S
STARLINK-1227 4.3 18:23:46 10° W 18:26:31 28° SW 18:26:38 28° SW
Cosmos 1892 2.7 18:22:40 10° N 18:26:33 63° E 18:27:12 53° SE
STARLINK-1218 4.3 18:24:17 10° W 18:27:00 27° SW 18:27:04 27° SW
STARLINK-1226 4.3 18:24:43 10° W 18:27:26 27° SW 18:27:30 27° SW
STARLINK-1254 4.3 18:25:09 10° W 18:27:53 27° SW 18:27:57 27° SW
STARLINK-1215 4.4 18:25:39 10° W 18:28:21 27° SW 18:28:22 27° SW
STARLINK-1231 4.4 18:26:06 10° W 18:28:48 26° SW 18:28:49 26° SW
STARLINK-1232 4.4 18:27:01 10° W 18:29:41 26° SW 18:29:41 26° SW
STARLINK-1217 4.4 18:27:28 10° W 18:30:07 26° SW 18:30:07 26° SW
STARLINK-1138 3.6 18:26:16 10° WNW 18:30:23 69° SSW 18:31:13 52° SSE
STARLINK-1208 4.4 18:27:53 10° W 18:30:34 26° SW 18:30:34 26° SW
STARLINK-1229 4.5 18:28:22 10° W 18:30:58 25° SW 18:30:58 25° SW
Abrixas rocket 3.8 18:28:38 10° W 18:30:32 21° SW 18:30:32 21° SW
Cosmos 1825 3.4 18:27:55 10° N 18:30:50 28° ENE 18:30:50 28° ENE
Cosmos-2242 3.9 18:31:53 33° ENE 18:31:53 33° ENE 18:35:20 10° NNE
STARLINK-1271 4.5 18:28:50 10° W 18:31:25 25° SW 18:31:25 25° SW
STARLINK-1270 4.5 18:29:18 10° W 18:31:51 25° SW 18:31:51 25° SW
STARLINK-1143 3.7 18:31:14 10° WNW 18:35:21 65° SSW 18:36:00 55° SSE
Cosmos 1356 Rocket 4.0 18:37:40 41° ENE 18:37:40 41° ENE 18:41:17 10° NNE
Cosmos 1821 Rocket 4.4 18:34:00 10° N 18:40:07 46° ENE 18:42:00 36° ESE
STARLINK-1241 3.7 18:36:16 10° WNW 18:40:22 60° SSW 18:40:49 56° S
ERBS 2.7 18:38:14 10° WNW 18:41:22 54° WSW 18:41:22 54° WSW
Spot 2 Rocket 3.5 18:42:04 37° S 18:44:09 84° WSW 18:49:17 10° NNW
IGS 5A 3.3 18:44:00 64° SE 18:44:29 73° ENE 18:48:38 10° N
USA 32 4.1 18:39:32 10° N 18:44:44 59° E 18:45:50 48° SE
STARLINK-1239 3.8 18:41:14 10° WNW 18:45:18 56° SSW 18:45:35 55° SSW
ATLAS CENTAUR R/B 2.0 18:42:13 10° NNW 18:45:53 36° NE 18:45:59 36° NE
SAR-Lupe-2 3.7 18:42:40 10° N 18:46:15 73° WNW 18:46:54 55° SW
STARLINK-29 3.7 18:43:59 10° W 18:47:08 51° NNW 18:47:14 50° N
Cosmos 1850 Rocket 3.8 18:44:15 23° SSW 18:47:27 76° ESE 18:52:39 10° NNE
Cosmos 1300 4.4 18:44:30 10° SW 18:47:58 32° WNW 18:51:28 10° N
Cosmos 841 Rocket 3.7 18:43:07 10° NNW 18:48:21 59° ENE 18:49:26 48° ESE
Cosmos 2278 4.4 18:43:49 10° NNW 18:49:10 41° NE 18:50:35 35° E
SL-08 R/B 4.4 18:43:09 10° N 18:49:20 81° E 18:51:52 38° SSE
Cosmos 2082 Rocket 3.8 18:52:22 19° ENE 18:52:22 19° ENE 18:54:34 10° NE
STARLINK-1240 3.9 18:46:14 10° WNW 18:50:16 52° SW 18:50:22 52° SSW
Terra 2.5 18:51:00 37° ENE 18:51:16 38° ENE 18:55:40 10° N
SPOT 5 2.9 18:52:27 48° ENE 18:52:27 48° ENE 18:56:38 10° N
MetOp-B 4.4 18:50:54 30° S 18:53:28 63° WSW 18:58:49 10° NNW
Meteor 2-10 Rocket 3.6 18:52:46 52° SE 18:53:29 57° E 18:58:49 10° NNE
STARLINK-60 4.2 18:51:50 10° WNW 18:54:57 38° N 18:55:08 38° N
STARLINK-1216 4.1 18:51:12 10° WNW 18:55:08 48° SW 18:55:08 48° SW
Cosmos 1833 Rocket 3.2 18:57:26 39° E 18:57:26 39° E 19:01:55 10° NE
STARLINK-1237 4.3 18:56:12 10° WNW 18:59:54 44° SW 18:59:54 44° SW
Cosmos 468 Rocket 4.4 18:55:43 10° NNW 19:00:46 55° WSW 19:02:21 39° SSW
CARTOSAT-1 3.6 19:02:25 64° ENE 19:02:25 64° ENE 19:06:36 10° N
STARLINK-1202 4.4 19:01:13 10° WNW 19:04:42 40° SW 19:04:42 40° SW
ERS-1 Rocket 2.8 19:07:01 67° SSE 19:07:42 83° ENE 19:12:45 10° NNW
SL-4 R/B 2.7 19:08:16 10° WNW 19:10:57 42° NW 19:10:57 42° NW
Cosmos 1408 3.3 19:09:33 10° NNW 19:12:35 53° NW 19:12:35 53° NW
Cosmos 1570 Rocket 4.0 19:07:52 10° NNW 19:13:14 76° WSW 19:14:06 61° S
CZ-4C R/B 3.1 19:06:56 10° NW 19:13:52 63° NE 19:16:38 41° ESE
RESURS DK-1 2.6 19:10:34 10° NW 19:14:21 64° W 19:14:21 64° W
Cosmos 1766 Rocket 3.6 19:11:28 10° N 19:15:40 76° NNE 19:15:40 76° NNE
COSMOS 2406 3.1 19:13:01 29° SSW 19:16:03 89° WNW 19:21:49 10° NNE
Okean 3 Rocket 3.6 19:12:49 10° NNW 19:17:10 80° WNW 19:17:10 80° WNW
Resurs 01 Rocket 3.9 19:17:43 12° SW 19:20:19 19° W 19:23:31 10° NW
CZ-2C R/B 4.4 19:17:51 10° N 19:22:16 29° WNW 19:26:41 10° WSW
BREEZE M DEB (TANK) 3.7 19:25:27 10° WSW 19:29:43 86° SSE 19:45:08 10° ENE
Cosmos 2151 3.7 19:27:10 10° NNW 19:30:59 49° W 19:30:59 49° W
Cosmos 2369 3.6 19:26:30 10° NNW 19:32:11 77° WSW 19:32:37 72° SSW
Cosmos 1697 Rocket 2.6 19:26:35 10° NNW 19:32:16 76° WSW 19:32:44 71° SSW
SL-16 R/B 3.2 19:48:51 10° NNW 19:54:04 35° NE 19:54:20 35° NE
Cosmos 2360 Rocket 4.0 19:50:19 10° N 19:54:26 20° NE 19:55:47 19° ENE
Cosmos 540 Rocket 4.1 19:49:45 10° NNW 19:54:30 46° W 19:54:30 46° W
Cosmos 1408 Rocket 4.4 19:50:52 10° NNW 19:54:16 48° NW 19:54:16 48° NW
USA 234 3.1 19:49:13 10° NE 19:55:48 89° NNW 20:02:22 10° WSW
Cosmos 1455 4.2 19:56:32 26° WNW 19:56:32 26° WNW 19:59:29 10° NNW
Nadezhda 3 Rocket 4.3 19:56:45 46° SW 19:58:26 61° WNW 20:04:39 10° N
Cosmos 2322 Rocket 3.3 19:55:57 10° NNW 20:01:04 34° NE 20:01:15 34° NE
Cosmos 1535 Rocket 4.4 19:55:51 10° N 20:02:02 80° W 20:02:18 78° SW
Cosmos 1980 Rocket 2.2 19:56:49 10° NNW 20:02:02 74° WNW 20:02:02 74° WNW
Cosmos 2221 4.2 20:09:47 29° NNE 20:09:47 29° NNE 20:12:01 10° NNE
ASTEX 1 3.9 20:10:30 56° NW 20:10:30 56° NW 20:14:36 10° N
ATLAS 5 CENTAUR R/B 4.5 20:06:41 10° WNW 20:09:55 18° NNW 20:13:28 10° NNE
Meteor 2-3 Rocket 4.1 20:07:34 10° NNW 20:13:03 58° W 20:13:03 58° W
Cosmos 1727 Rocket 4.4 20:21:08 51° ENE 20:21:08 51° ENE 20:26:22 10° NNE
ATLAS CENTAUR R/B 4.0 20:21:25 10° WNW 20:22:10 14° WNW 20:22:10 14° WNW
Cosmos 2344 4.3 20:15:28 10° NW 20:25:00 84° SW 20:28:34 53° SSE
Cosmos 1934 Rocket 4.4 20:20:41 10° NNW 20:26:43 52° W 20:26:55 52° W
Terra 3.4 20:29:53 28° WNW 20:29:53 28° WNW 20:33:16 10° NNW
Mayak 0.6 20:26:16 10° N 20:28:24 28° N 20:28:24 28° N
Cosmos 2082 Rocket 2.6 20:34:09 60° NW 20:34:09 60° NW 20:39:24 10° NNE
Cosmos 2100 Rocket 4.4 20:30:28 10° N 20:35:56 53° NE 20:35:56 53° NE
Cosmos 1833 Rocket 3.9 20:39:02 32° W 20:40:37 38° NW 20:45:53 10° NNE
Cosmos 2173 Rocket 4.4 20:36:28 10° N 20:41:40 53° NE 20:41:40 53° NE
Cosmos 1605 Rocket 4.3 20:39:02 10° NNW 20:44:41 57° WNW 20:44:41 57° WNW
Cosmos 2219 Rocket 4.1 20:47:29 10° N 20:51:37 20° NE 20:53:00 19° ENE
ALOS 2 4.5 20:59:27 29° N 20:59:27 29° N 21:01:37 10° N
CZ-4C R/B 3.6 20:55:39 10° NW 21:01:49 42° WSW 21:01:49 42° WSW
COSMOS 2428 4.2 21:16:08 10° NNW 21:21:01 28° NE 21:21:38 28° ENE
SL-16 R/B 3.5 21:32:54 10° NW 21:36:11 32° WNW 21:36:11 32° WNW
USA 234 4.0 21:32:18 10° ENE 21:38:31 48° NNW 21:44:45 10° W
Cosmos 2360 Rocket 3.0 21:33:38 10° NNW 21:37:32 46° NNW 21:37:32 46° NNW
Cosmos 2322 Rocket 3.5 21:39:54 10° NW 21:43:04 32° NW 21:43:04 32° NW
Cosmos 2061 Rocket 4.4 21:40:46 10° NNW 21:45:52 58° NW 21:45:52 58° NW
MOS 1-B Rocket 4.3 21:44:04 10° NNE 21:49:49 77° N 21:49:49 77° N
Cosmos 2333 Rocket 3.0 21:55:50 10° NNW 22:00:27 48° NNE 22:00:27 48° NNE
Cosmos 2237 Rocket 4.1 21:57:43 10° N 22:02:22 25° NE 22:04:39 20° ENE
Cosmos 2233 Rocket 4.3 21:57:59 10° N 22:03:15 64° N 22:03:15 64° N
SL-16 R/B 3.9 22:03:37 28° E 22:05:08 31° ENE 22:10:29 10° N
Cosmos 2297 Rocket 4.5 22:25:23 13° E 22:25:23 13° E 22:27:34 10° ENE
SJ 16-02 3.5 22:30:22 23° NE 22:30:22 23° NE 22:32:12 10° NNE
Cosmos 1464 Rocket 4.3 22:29:09 10° N 22:34:57 58° ENE 22:34:57 58° ENE
Cosmos 2219 Rocket 3.0 22:30:47 10° NNW 22:34:42 47° NNW 22:34:42 47° NNW
Resurs 1-4 Rocket 3.3 22:44:08 10° NNE 22:48:17 34° E 22:48:17 34° E
Meteor 1-11 Rocket 4.2 22:43:36 10° N 22:49:20 61° ENE 22:49:20 61° ENE
Cosmos 2227 Rocket 4.1 22:51:41 19° E 22:51:41 19° E 22:55:32 10° NE
Cosmos 1937 Rocket 4.4 23:01:05 44° ENE 23:01:05 44° ENE 23:05:01 10° NNE
Cosmos 1513 Rocket 4.5 22:57:59 10° N 23:03:57 80° NNW 23:03:57 80° NNW
COSMOS 2428 3.7 23:00:05 10° NNW 23:03:37 38° NW 23:03:37 38° NW
Cosmos 1980 4.0 23:00:35 10° NNW 23:06:14 63° ENE 23:06:15 63° ENE
Timation 2 Rocket 4.1 23:08:53 72° SE 23:09:04 72° ESE 23:15:58 10° NNE
Cosmos 990 Rocket 4.4 23:16:12 59° NNE 23:16:12 59° NNE 23:20:23 10° NNE
Cosmos 1898 Rocket 3.9 23:18:56 61° N 23:18:56 61° N 23:23:16 10° NNE
USA 234 4.2 23:14:44 10° ENE 23:20:50 44° N 23:26:57 10° WNW
CZ-2D R/B 2.4 23:16:24 10° NNE 23:21:40 65° E 23:21:40 65° E
SL-16 R/B 3.6 23:19:39 10° NNW 23:24:52 36° NE 23:30:04 10° ESE
NPP 3.9 23:19:30 10° NNE 23:24:42 61° E 23:24:42 61° E
Cosmos 2034 Rocket 3.9 23:20:15 10° N 23:26:40 84° W 23:26:51 83° SW
CENTAUR R/B 4.0 23:25:36 21° ESE 23:26:47 22° ESE 23:31:41 10° ENE
Tsikada Rocket 4.3 23:26:15 55° SE 23:27:14 62° E 23:33:33 10° NNE
NOSS 3-2 (A) 4.1 23:27:22 39° ESE 23:27:31 39° ESE 23:33:24 10° NE
Cosmos 2285 Rocket 4.2 23:30:56 58° WNW 23:31:15 59° WNW 23:37:37 10° NNE
ERS-2 4.0 23:36:28 30° NNE 23:36:28 30° NNE 23:38:52 10° N
ATLAS 5 CENTAUR R/B 3.8 23:37:46 10° NNW 23:42:43 35° NE 23:48:25 10° E
Cosmos 2333 Rocket 4.0 23:40:38 10° NW 23:42:25 18° WNW 23:42:25 18° WNW
Cosmos 2237 Rocket 2.2 23:41:21 10° NNW 23:46:25 67° WNW 23:46:25 67° WNW
SL-16 R/B 2.6 23:48:42 56° W 23:48:42 56° W 23:54:35 10° NNW
STARLINK-1014 4.5 23:54:17 48° NNE 23:54:17 48° NNE 23:57:34 10° ENE
Lacrosse 5 rocket 2.9 23:54:19 28° NNW 23:54:19 28° NNW 23:57:41 10° NE
STARLINK-1017 4.4 23:55:03 50° NNE 23:55:03 50° NNE 23:58:26 10° ENE
